Regional Weather Roundup
Issued by NWS Goodland, KS

Home | Current Version | Previous Version | Graphics & Text | Print | Product List | Glossary On
Versions: 1 2 3 4 5 6 7 8 9 10 11 12 13 14 15 16 17 18 19 20 21 22 23 24 25 26 27 28 29 30 31 32 33 34 35 36 37 38 39 40 41 42 43 44 45 46 47 48 49 50
000
ASUS43 KGLD 262308
RWRGLD

GOODLAND FORECAST AREA HOURLY WEATHER ROUNDUP
NATIONAL WEATHER SERVICE GOODLAND KS
500 PM MDT WED APR 26 2017

...OFFICIAL OBSERVATIONS...

CITY           SKY/WX    TMP DP  RH WIND       PRES   REMARKS
GOODLAND KS    SUNNY     58  28  32 NW13      29.69F
HILL CITY KS   SUNNY     57  31  37 N8        29.70F
IMPERIAL NEB   SUNNY     58  29  33 NW6       29.69F
MCCOOK NEB     SUNNY     56  28  34 N10G23    29.69F
AKRON CO       SUNNY     54  31  41 NW12      29.69F
BURLINGTON CO  NOT AVBL
LIMON CO       CLOUDY    53  28  38 W13       29.71S
$$

...UNOFFICIAL OBSERVATIONS...

CITY           SKY/WX    TMP DP  RH WIND       PRES   REMARKS
LENORA KS        N/A     55  32  41 MISG        N/A
NORTON KS      SUNNY     54  30  40 N8G16     29.68F
SHARON SPRINGS   N/A     59  31  35 N6G13       N/A
TRENTON NEB      N/A     56  32  40 NE5         N/A
KIT CARSON CO    N/A     57  30  35 MISG        N/A
$$




USA.gov is the U.S. government's official web portal to all federal, state and local government web resources and services.